FW0311 Weather Reports


Display with metric or nautical units.
time (UTC)temp
F
wind
direction
speed
MPH
gust
MPH
rain 1hr
in
rain 24hr
in
rain mn
in
humidity
%
barometer
mb
20260507133018 50 312 0.0 0.0 0.00 0.03 0.00 57 1013.9
20260507131513 48 312 0.0 0.0 0.00 0.03 0.00 61 1014.1
20260507130011 46 313 0.0 0.0 0.00 0.03 0.00 65 1014.3
20260507124510 44 313 0.0 0.0 0.00 0.04 0.00 68 1014.5
20260507123010 43 313 0.0 1.0 0.00 0.04 0.00 75 1014.5
20260507121508 42 313 0.0 0.0 0.00 0.04 0.00 83 1014.2
20260507120008 40 313 0.0 0.0 0.00 0.04 0.00 87 1014.3
20260507114506 39 313 0.0 0.0 0.00 0.12 0.00 92 1014.3
20260507113004 38 313 0.0 0.0 0.00 0.12 0.00 93 1014.1
20260507111502 37 313 0.0 0.0 0.00 0.12 0.00 92 1013.9
20260507104558 37 313 0.0 0.0 0.00 0.14 0.00 89 1013.7
20260507103057 38 313 0.0 0.0 0.00 0.14 0.00 88 1013.6
20260507101554 38 313 0.0 0.0 0.00 0.14 0.00 87 1013.3
20260507100053 39 313 0.0 0.0 0.00 0.14 0.00 86 1013.4
20260507094553 40 313 0.0 0.0 0.00 0.14 0.00 85 1013.3
20260507093046 41 313 0.0 0.0 0.00 0.14 0.00 81 1013.3
20260507091543 41 313 0.0 0.0 0.00 0.14 0.00 80 1013.2
20260507090042 42 313 0.0 0.0 0.00 0.14 0.00 77 1013.2
20260507084537 43 313 0.0 0.0 0.00 0.14 0.00 75 1013.0
20260507083038 43 313 0.0 0.0 0.00 0.14 0.00 74 1013.0
20260507081533 44 313 0.0 0.0 0.00 0.14 0.00 73 1013.3
20260507080030 45 313 0.0 0.0 0.00 0.14 0.00 73 1013.1
20260507074530 45 313 0.0 0.0 0.00 0.14 0.00 70 1013.1
20260507073027 45 313 0.0 0.0 0.00 0.14 0.00 72 1013.1
20260507071533 45 313 0.0 0.0 0.00 0.14 0.00 68 1013.1
20260507070024 46 313 0.0 0.0 0.00 0.14 0.00 68 1013.1
20260507064522 46 313 0.0 0.0 0.00 0.14 0.00 69 1013.1
20260507063024 46 313 0.0 4.0 0.00 0.14 0.00 69 1013.3
20260507061519 46 313 0.0 5.0 0.00 0.14 0.00 67 1013.4
20260507060017 47 315 0.0 0.0 0.00 0.14 0.00 67 1013.4
20260507054514 47 315 0.0 3.0 0.00 0.14 0.00 66 1013.4
20260507053015 47 315 0.0 0.0 0.00 0.14 0.00 67 1013.4
20260507051511 47 306 0.0 5.0 0.00 0.14 0.00 69 1013.4
20260507050011 48 313 0.0 0.0 0.00 0.14 0.00 68 1013.6
20260507044507 48 313 0.0 0.0 0.00 0.14 0.00 67 1013.3
20260507043007 48 313 0.0 0.0 0.00 0.14 0.00 71 1013.3
20260507041503 48 313 0.0 0.0 0.00 0.14 0.00 70 1013.5
20260507040115 48 313 0.0 4.0 0.00 0.14 0.00 69 1013.4
20260507034602 48 313 0.0 2.0 0.00 0.14 0.14 71 1012.8
20260507033058 48 313 2.0 4.0 0.00 0.14 0.14 70 1013.1
20260507031557 49 313 1.0 7.0 0.00 0.14 0.14 70 1012.9
20260507030055 49 311 2.0 7.0 0.00 0.14 0.14 71 1013.0
20260507024551 49 315 0.0 8.0 0.00 0.14 0.14 74 1012.8
20260507023047 49 323 3.0 6.0 0.00 0.14 0.14 81 1012.5
20260507021547 50 339 0.0 3.0 0.00 0.14 0.14 82 1012.0
20260507020051 50 328 2.0 7.0 0.00 0.14 0.14 82 1011.9
20260507014544 50 301 0.0 8.0 0.00 0.14 0.14 82 1012.1
20260507013040 50 332 1.0 6.0 0.00 0.14 0.14 83 1012.2
20260507011541 51 340 1.0 5.0 0.00 0.14 0.14 84 1012.2
20260507010037 51 270 1.0 4.0 0.00 0.14 0.14 85 1012.5
20260507004536 51 267 1.0 4.0 0.00 0.14 0.14 85 1012.6
20260507003033 51 295 0.0 0.0 0.00 0.14 0.14 86 1012.0
20260507001541 51 298 0.0 0.0 0.00 0.14 0.14 87 1012.1
20260507000029 51 298 0.0 3.0 0.00 0.14 0.14 87 1011.5
20260506234533 51 300 0.0 0.0 0.00 0.14 0.14 87 1011.3
20260506233026 51 300 0.0 0.0 0.00 0.14 0.14 87 1011.1
20260506231525 51 300 1.0 6.0 0.00 0.14 0.14 87 1010.9
20260506230022 51 300 0.0 0.0 0.00 0.14 0.14 88 1010.7
20260506224527 52 325 1.0 7.0 0.00 0.14 0.14 88 1010.8
20260506223018 52 313 2.0 4.0 0.00 0.14 0.14 88 1010.7
20260506221516 52 296 5.0 8.0 0.00 0.14 0.14 88 1010.4
20260506220013 53 293 4.0 10.0 0.00 0.14 0.14 90 1010.2
20260506214511 53 308 1.0 4.0 0.00 0.14 0.14 89 1010.0
20260506213016 53 320 1.0 7.0 0.00 0.14 0.14 89 1009.7
20260506211506 53 275 4.0 8.0 0.00 0.14 0.14 89 1009.6
20260506210004 53 318 3.0 6.0 0.00 0.14 0.14 91 1009.2
20260506204502 53 237 1.0 9.0 0.00 0.14 0.14 92 1008.9
20260506203143 53 283 4.0 11.0 0.00 0.14 0.14 91 1009.0
20260506201557 54 293 3.0 11.0 0.00 0.14 0.14 91 1009.0
20260506200055 54 229 0.0 10.0 0.00 0.14 0.14 91 1008.9
20260506194553 54 283 4.0 8.0 0.00 0.14 0.14 91 1008.8
20260506193048 55 238 5.0 9.0 0.00 0.14 0.14 92 1008.6
20260506191551 55 250 2.0 8.0 0.00 0.14 0.14 93 1008.4
20260506190049 55 324 6.0 12.0 0.00 0.14 0.14 93 1008.3
20260506184551 57 229 3.0 7.0 0.00 0.14 0.14 94 1007.9
20260506183038 57 231 3.0 7.0 0.00 0.14 0.14 94 1007.5
20260506181538 57 270 0.0 9.0 0.00 0.14 0.14 93 1007.6
20260506180038 58 198 1.0 6.0 0.00 0.14 0.14 94 1007.5
20260506174536 58 273 0.0 4.0 0.00 0.14 0.14 95 1007.5
20260506173044 57 274 1.0 4.0 0.00 0.14 0.14 96 1007.3
20260506171537 58 281 2.0 6.0 0.00 0.14 0.14 96 1007.1
20260506170033 58 220 2.0 5.0 0.00 0.14 0.14 97 1006.9
20260506164536 58 198 0.0 6.0 0.00 0.14 0.14 97 1006.6
20260506163052 58 232 1.0 8.0 0.01 0.14 0.14 97 1006.6
20260506161531 58 223 1.0 5.0 0.02 0.14 0.14 97 1006.5
20260506160034 58 226 0.0 3.0 0.02 0.14 0.14 97 1006.5
20260506154536 58 200 0.0 3.0 0.02 0.14 0.14 96 1006.4
20260506153032 57 231 0.0 4.0 0.01 0.13 0.13 96 1006.5
20260506151537 57 236 0.0 2.0 0.00 0.12 0.12 96 1006.3
20260506150029 57 211 0.0 5.0 0.00 0.12 0.12 96 1006.0
20260506144528 57 217 0.0 3.0 0.00 0.12 0.12 96 1005.9
20260506143028 57 234 0.0 0.0 0.00 0.12 0.12 96 1005.7
20260506141526 57 234 0.0 0.0 0.01 0.12 0.12 96 1005.6
20260506140029 57 322 1.0 12.0 0.01 0.12 0.12 96 1005.3
20260506134524 56 197 0.0 0.0 0.02 0.12 0.12 96 1005.8